Regional Weather Roundup
Issued by NWS

Home | Current Version | Previous Version | Text Only | Print | Product List | Glossary On
Versions: 1 2 3 4 5 6 7 8 9 10 11 12 13 14 15 16 17 18 19 20 21 22 23 24 25 26 27 28 29 30 31 32 33 34 35 36 37 38 39 40 41 42 43 44 45 46 47 48 49 50
000
ASUS45 KTFX 290804
RWRMT
MONTANA HOURLY WEATHER ROUNDUP
NATIONAL WEATHER SERVICE GREAT FALLS MT
204 AM MDT FRI AUG 29 2014

NOTE: "FAIR" INDICATES FEW OR NO CLOUDS BELOW 12000 FEET WITH NO
SIGNIFICANT WEATHER AND/OR OBSTRUCTIONS TO VISIBILITY.

* THESE STATIONS ARE NOT UNDER NWS QUALITY CONTROL. THEY DO NOT
   REPORT WEATHER SUCH AS PRECIPITATION OR FOG.

MTZ001>007-043-290900-
WEST OF THE DIVIDE
CITY           SKY/WX    TMP DP  RH WIND       PRES   REMARKS
KALISPELL      PTCLDY    55  48  77 N3        30.02R
MISSOULA       CLEAR     57  43  60 CALM      30.04R
BUTTE          PTCLDY    57  39  51 CALM      30.13F
MULLAN PASS    CLEAR     55  37  51 SW6       30.14F
* LINCOLN      N/A       54  49  83 E10G20     N/A
* LOOKOUT PASS N/A       53  41  64 N/A        N/A
* POLSON       N/A       57  45  64 N2         N/A
* RONAN APT    CLEAR     55  46  72 SW5        N/A
* SEELEY LAKE  N/A       47  41  80 NE3        N/A
* THOMP F APT  CLEAR     55  43  64 NE4G11     N/A
$$

MTZ008-052>055-290900-
SOUTHWEST MONTANA
CITY           SKY/WX    TMP DP  RH WIND       PRES   REMARKS
BOZEMAN        CLOUDY    64  48  56 S13       30.07S
DILLON         CLOUDY    63  46  54 S8        30.09S
W YELLOWSTONE  MOCLDY    50  46  86 N5        30.21F
* THREE FORKS  CLOUDY    66  66 100 N/A        N/A
* BOULDER HILL N/A       51  44  77 N18G24     N/A
* MONIDA PASS  N/A       49  46  89 W3         N/A
* RAYNOLDS PAS N/A       50  35  57 S7         N/A
* WHITEHALL    N/A       65  36  34 N10G17     N/A
* WISE RIVER   N/A       53  37  55 SE7        N/A
$$

MTZ009>010-012-014-046-048-049-054-290900-
EAST SLOPES AND CENTRAL MONTANA
CITY           SKY/WX    TMP DP  RH WIND       PRES   REMARKS
CUT BANK       PTCLDY    46  46 100 NW3       30.08F
GREAT FALLS    CLEAR     50  48  93 SW7       30.11F
HELENA         MOCLDY    57  48  72 W8        30.13R
MALMSTROM AFB  CLEAR     52  50  93 SW9       30.12F
* CONRAD       PTCLDY    50  50 100 N/A        N/A
* EAST GLACIER N/A       46  45  96 N2         N/A
* MONARCH      N/A       49  46  89 W1         N/A
* PENDROY      N/A       48  48 100 SW4        N/A
* ROGERS PASS  N/A       48  47  96 W1         N/A
* SAINT MARY   N/A       45  45 100 SE2        N/A
* SWEET GRASS  N/A       49  49 100 N11        N/A
$$

MTZ011-013-016-021-035-040-045-047-050-051-290900-
NORTH CENTRAL MONTANA
CITY           SKY/WX    TMP DP  RH WIND       PRES   REMARKS
HAVRE          CLOUDY    55  52  90 NW8       30.06S
LEWISTOWN      CLOUDY    55  48  77 NW10G20   30.12R
* CHESTER      N/A       54  49  83 S2         N/A
* DENTON       N/A       55  52  90 NW10G16    N/A
* GEYSER       N/A       54  51  90 SW11G16    N/A
* JUDITH GAP   N/A       53  50  90 N18G30     N/A
* LOMA         N/A       58  51  78 SW4        N/A
$$

MTZ017>020-022>027-061-062-290900-
NORTHEAST MONTANA
CITY           SKY/WX    TMP DP  RH WIND       PRES   REMARKS
GLASGOW        LGT RAIN  61  57  87 NE9       29.90F
GLENDIVE       PTCLDY    64  55  73 N26G31    29.89R
JORDAN         PTCLDY    61  55  81 N10       29.95R
SIDNEY         MOCLDY    64  55  73 N26G31    29.87R
WOLF POINT     TSTM      63  55  75 N18G26    29.88R
* BEAVER HILL  N/A       66  49  54 E1         N/A
* CIRCLE       N/A       63  56  78 N7G18      N/A
* LINDSAY DVD  N/A       61  55  81 NW23G35    N/A
* NAVAJO       N/A       57  56  96 N10        N/A
* SACO         N/A       57  54  90 N11G16     N/A
$$

MTZ028>042-056>058-290900-
SOUTHCENTRAL AND SOUTHEAST MONTANA
CITY           SKY/WX    TMP DP  RH WIND       PRES   REMARKS
BAKER          CLEAR     55  52  90 SE5       29.85S
BILLINGS       CLOUDY    70  52  53 W16G28    30.02R
LIVINGSTON     LGT RAIN  64  48  56 S6        30.08S
MILES CITY     CLOUDY    64  54  70 NW18G29   29.87R
* LAUREL APT   CLOUDY    64  52  65 W9         N/A
* ROUNDUP APT  CLOUDY    63  52  68 NW25G36    N/A
* ALZADA       N/A       56  49  77 E3         N/A
* HYSHAM       N/A       67  47  49 NW10       N/A
* LAME DEER    N/A       65  49  56 W6         N/A
* REED POINT   N/A       68  48  49 W5         N/A
* ROSCOE HILL  N/A       59  39  48 S6G16      N/A
$$

REGIONAL REPORTS...DAKOTAS
CITY           SKY/WX    TMP DP  RH WIND       PRES   REMARKS
WILLISTON      CLEAR     64  55  73 N22G32    29.84R
DICKINSON      MOCLDY    59  54  84 S6        29.80S
BEACH          N/A       55  55 100 CALM      29.84R
CROSBY         CLEAR     59  57  93 NW12G17   29.86R
TIOGA          CLEAR     63  63 100 N24G30    29.84R
WATFORD CITY   CLEAR     57  54  90 NW13      29.79R
BISMARCK       FOG       61  61 100 E3        29.80S VSB M1/4
GRAND FORKS    CLOUDY    66  64  93 S9        29.79S
FARGO          CLOUDY    66  64  93 S5        29.79F
BUFFALO SD     CLEAR     64  54  70 W7        29.79F
RAPID CITY     CLEAR     55  54  96 NW6       29.89F
$$

REGIONAL REPORTS...WYOMING/IDAHO/WASHINGTON
CITY           SKY/WX    TMP DP  RH WIND       PRES   REMARKS
GILLETTE       CLEAR     61  48  62 SW6       29.96S
SHERIDAN       CLOUDY    66  50  56 NW26G39   29.97R
CODY           CLOUDY    61  48  62 W7        30.14S
YELLOWSTONE LA CLOUDY    46  45  96 CALM      30.30F
SALMON         CLEAR     59  45  60 CALM      30.05S
MULLAN PASS    CLEAR     55  37  51 SW6       30.14S
SAND POINT     PTCLDY    52  52 100 W3        29.97S
SPOKANE        CLOUDY    64  43  47 SE7       29.96R

$$




USA.gov is the U.S. government's official web portal to all federal, state and local government web resources and services.